Skip Page Navigation
NASA JPL Caltech
NASA Logo - Jet Propulsion Laboratory + View the NASA Portal
+ Center for Near-Earth Object Studies
JPL Home Earth Solar System Stars & Galaxies Technology
JPL Solar System Dynamics
BODIES ORBITS EPHEMERIDES TOOLS PHYSICAL DATA DISCOVERY FAQ SITE MAP
IMPORTANT: The SSD Announcement email list is now available. Major changes are coming in the near future, including possible hostname and/or URL changes. To be notified of such changes, subscribe to this email list.

Please visit this page for more details.


JPL Small-Body Database Browser
Search: [ help ]  
C/1964 L1 (Tomita-Gerber-Honda)
Classification: Comet          SPK-ID: 1001118
Ephemeris | Orbit Diagram | Orbital Elements ]

[ show orbit diagram ]
Orbital Elements at Epoch 2438560.5 (1964-Jun-14.0) TDB
Reference: SAO_2008 (heliocentric ecliptic J2000)
 Element Value Uncertainty (1-sigma)   Units 
e 0.995933 n/a  
a 123.0299975 n/a au
q 0.500363 n/a au
i 161.8323 n/a deg
node 309.8701 n/a deg
peri 58.4245 n/a deg
M -0.0120050 n/a deg
tp 2438577.1216
(1964-Jun-30.62160000)
n/a TDB
period n/a
n/a
n/a
n/a
d
yr
n 0.0007223 n/a deg/d
Q 245.5596321 n/a au
  Orbit Determination Parameters
   # obs. used (total)      16  
   data-arc span      229 days  
   first obs. used      1964-06-11  
   last obs. used      1965-01-26  
   producer      Marsden  

Additional Information
 T_jup = -0.790 
 2008 SAO Comet Catalog 

Ephemeris | Orbit Diagram | Orbital Elements ]

no physical parameters available
Ephemeris | Orbit Diagram | Orbital Elements ]
ABOUT SSD CREDITS/AWARDS PRIVACY/COPYRIGHT GLOSSARY LINKS
FirstGov 2020-Apr-07 11:30 UT
(server date/time)  
NASA Home Page
Site Manager:   Ryan S. Park
Webmaster  Alan B. Chamberlin